Погода Геокчаы

Погода Геокчаы : погода сейчас, прогноз погоды и архив. Всё, что Вы хотите узнать о погоде Геокчаы!

Поиск расширенной информации на нашем сайте:

Другие новости

Новости СМИ2

Главная страница сайта

Новости сайта

03.07.2017

Напоминаем, что на нашем специализированном сайте Метеоцентр.Азия вы можете получить высокодетализированные автоматические прогнозы погоды по пунктам России, СНГ и мира в авиационном формате (включающие направление и скорость ветра, видимость, явления погоды, количество и форму облачности, нижнюю и верхнюю границу облачности).


Погода Геокчаы - сегодня

Время (UTC), дата Ветер
(°,м/с) 
Видим.   Явления Облачность Т
(°С)
Тd
(°С)
f(%) Тe
(°С)
Pmin
(гПа)
dP
(гПа)
Po
(мм)
O2
(г/м3)
Тmin Tmax R s Состояние
почвы
03 20.05.18 360 (С) 20000 м    6/0 средняя, верхняя 
[Ac lent|Ci fib]
+17.3 +8.8 57 +18  1017.6  0.3  755  284           
09 20.05.18 160 (Ю) 20000 м    6/6 1000 м 
[Cu med, cong]
+30.1 +6.4 23 +30  1016  -1.1  754  273           
12 20.05.18 180 (Ю) 20000 м    8/3 600 м кучево-дожд., средняя 
[Cb calv|Ac As]
+31.1 +5.8 20 +31  1014.6  -1.2  753  271           
15 20.05.18 050 (СВ) 20000 м    9/0 средняя 
[Ac As]
+30.1 +9.5 28 +31  1013.7  -0.9  752  271           
21 20.05.18 200 (Ю) 20000 м    8/3 600 м кучево-дожд., средняя 
[Cb calv|Ac As]
+21.3 +8.4 44 +21  1015.5  -0.6  753  280           
00 21.05.18 320 (СЗ) 20000 м    ясно 
+20.2 +8.6 47 +20  1014.5  -1  753  281           
03 21.05.18 360 (С) 20000 м    10/3 600 м кучево-дожд., средняя 
[Cb calv|Ac As]
+19.2 +9.7 54 +21  1015.8  1.2  754  282           
06 21.05.18 360 (С) 20000 м    10/3 600 м кучево-дожд., средняя 
[Cb calv|Ac As]
+23.9 +12.8 50 +29  1016.5  0.8  754  277  +19         
09 21.05.18 270 (З) 20000 м    8/0 средняя 
[Ac As]
+27.4 +10.2 34 +29  1015.9  -0.5  754  274           
12 21.05.18 270 (З) 20000 м    4/0 верхняя 
[Cs]
+30.2 +11.2 31 +33  1014.1  -1.7  752  271           
15 21.05.18 230 (ЮЗ) 20000 м    10/3 600 м кучево-дожд., средняя 
[Cb calv|Ac As]
+27.3 +14.3 45 +35  1013.6  -0.5  752  273           
21 21.05.18 270 (З) 20000 м    8/3 600 м кучево-дожд., средняя 
[Cb calv|Ac As]
+20.6 +11.4 56 +24  1015.7  -0.6  753  280           
00 22.05.18 270 (З) 20000 м    8/0 средняя 
[Ac As]
+19.7 +11.8 60 +24  1016.9  -1.2  754  281           
03 22.05.18 270 (З) 20000 м    10/3 600 м кучево-дожд., средняя 
[Cb calv|Ac As]
+21 +13.9 64 +28  1018  1.1  755  280           
06 22.05.18 230 (ЮЗ) 20000 м    6/0 средняя 
[Ac cast]
+26.8 +14.7 47 +35  1019.1  1.4  756  274  +19.5         
09 22.05.18 250 (З) 20000 м    4/0 средняя 
[Ac cast]
+31.5 +11.3 29 +34  1018.7  -0.2  756  271           
12 22.05.18 160 (Ю) 20000 м    8/4 1000 м верхняя 
[Cu med, cong|Ci fib]
+32.2 +7.8 22 +32  1017.3  -1.4  755  271           
15 22.05.18 110 (В) 20000 м    6/0 средняя 
[Ac trans]
+29.8 +11 31 +32  1017.7  0.3  755  272           
18 22.05.18 тихо ()   20000 м    8/8 600 м 
[Sc]
+23.2 +15 60 +32  1019.8  1.8  757  278    +33.4       
21 22.05.18 020 (С) 20000 м    3/0 верхняя 
[Ci fib]
+20.5 +12.9 62 +26  1019.7  -0.3  756  281           
00 23.05.18 360 (С) 20000 м    3/0 верхняя 
[Cs]
+18.5 +9.9 57 +20  1020.2  0.6  757  284           
03 23.05.18 360 (С) 20000 м    ясно средняя 
[Ac trans]
+20.3 +9.9 51 +21  1020.7  0.5  757  282           
09 23.05.18 250 (З) 20000 м    ясно 
+32.8 +7.3 21 +33  1019.2  -1.3  756  271           
12 23.05.18 140 (ЮВ) 20000 м    ясно 
+34.6 +6.8 18 +35  1017.3  -1.9  755  269           
15 23.05.18 160 (Ю) 20000 м    ясно 
+31.6 +6.1 20 +32  1017.1  -0.3  755  272           
Время (UTC), дата Ветер
(°,м/с) 
Видим.   Явления Облачность Т
(°С)
Тd
(°С)
f(%) Тe
(°С)
Pmin
(гПа)
dP
(гПа)
Po
(мм)
O2
(г/м3)
Тmin Tmax R s Состояние
почвы

Для получения пояснительной информации подведите курсор к названию столбца.

ПОГОДА Геокчаы - архив

Всё, что Вы хотите узнать о погоде Геокчаы - удобно и подробно!

Выберите нужную дату (начиная с 1 января 2015* года) и нажмите кнопку "Найти".
Будут отображены архивные сводки погоды по пункту Геокчаы, начиная с указанной даты.


Отображать данные в формате CSV (для использования в таблицах Excel)


Внимание! Наш архив погоды предназначен исключительно для личного некоммерческого использования в познавательных целях. Если Вам необходимы официальные справки о состоянии погоды (для производственных, юридических, коммерческих и т.п. целей), обращайтесь в органы Росгидромета.

*Примечание: данная дата относится к архиву по метеостанциям СССР (Россия, СНГ, Балтия).
Архив по метеостанциям Зарубежной Европы и Азии (кроме Китая) хранится 10 дней, по другим регионам земного шара (Китай, Африка, Америка, Австралия, Океания) - 1 день.

Геокчаы - район местоположения метеостанции


Название, широта, долгота, высота метеостанции:
Геокчаы 40.6°ш. 47.8°д. 95 м над ур. моря [Азербайджан]

Дополнительная информация

В oтличие oт бoльшинства пoгoдных сайтoв мы публикуем пoдрoбную метеoинфoрмацию в детальнoм прoфессиoнальнoм фoрмате.

Характеристики температуры и влажнoсти вoздуха измеряются на высoте 2 м в тени вдали oт зданий и деревьев.
Скoрoсть ветра измеряется на высoте 10 м (на урoвне рoста челoвека скoрoсть ветра ниже в 1.5-2 раза). Если метеoстанция нахoдится в гoрoде или в лесу, тo скoрoсть ветра занижена на 2-4 м/с пo сравнению с oткрытым местoм. Скoрoсть ветра над акватoриями крупных рек и oзёр, а также на вершинах хoлмoв на 2-5 м/с выше, чем в oбычных услoвиях.
Атмoсфернoе давление в разных тoчках местнoсти мoжет значительнo oтличаться oт давления на метеoстанции, в зависимoсти oт услoвий рельефа (при пoдъёме на 10 м давление пoнижается примернo на 1 мм рт.ст.).